Weather Roundup
Issued by NWS Chicago, IL

Home | Current Version | Previous Version | Text Only | Print | Product List | Glossary On
Versions: 1 2 3 4 5 6 7 8 9 10 11 12 13 14 15 16 17 18 19 20 21 22 23 24 25 26 27 28 29 30 31 32 33 34 35 36 37 38 39 40 41 42 43 44 45 46 47 48 49 50
000
NZUS59 KLOT 312310
HRRLOT

CHICAGO AREA WEATHER ROUNDUP
NATIONAL WEATHER SERVICE CHICAGO/ROMEOVILLE IL
600 PM CDT FRI OCT 31 2014

NOTE: "FAIR" INDICATES FEW OR NO CLOUDS BELOW 12,000 FEET WITH NO
SIGNIFICANT WEATHER AND/OR OBSTRUCTIONS TO VISIBILITY.

* THESE STATIONS ARE NOT UNDER NWS QUALITY CONTROL. THEY ALSO MAY NOT
  REPORT WEATHER SUCH AS PRECIPITATION OR FOG.

ILZ005-006-012>014-019>023-010000-
NORTHEAST ILLINOIS

CITY           SKY/WX    TMP DP  RH WIND       PRES   REMARKS
OHARE          CLOUDY    38  19  46 N25G37    30.28R
MIDWAY         FLURRIES  36  31  82 N26G39    30.28R
AURORA         CLOUDY    38  17  42 N20G29    30.31R
LANSING*       MOCLDY    38  28  67 N21G38    30.24R
JOLIET*        CLOUDY    38  19  47 N18G30    30.29R
WAUKEGAN       CLOUDY    36  19  50 N16G30    30.29R
DUPAGE AIRPORT CLOUDY    38  19  46 N25G35    30.29R
WHEELING       CLOUDY    39  19  44 N22G33    30.31R
KANKAKEE*      CLOUDY    37  28  67 N16G28    30.26R
MORRIS*        CLOUDY    38  21  51 N14G23    30.29R
LEWIS AIRPORT* CLOUDY    38  19  47 N17G29    30.29R
NORTHERLY IS     N/A     40  31  70 NW26        N/A
$$

WIZ051-052-058>065-066-070>072-010000-
SOUTHEAST WISCONSIN

CITY           SKY/WX    TMP DP  RH WIND       PRES   REMARKS
MILWAUKEE      MOCLDY    37  19  48 N15G32    30.33R
KENOSHA*       CLOUDY    37  20  50 N16G28    30.31R
RACINE*        CLOUDY    37  19  48 N18G32    30.32R
BURLINGTON     MOCLDY    35  16  46 N15G26    30.33R WCI  25
WAUKESHA       MOCLDY    36  18  48 N17G23    30.34R
WEST BEND      CLOUDY    34  18  51 N16G22    30.35R WCI  23
$$

INZ001>003-010>013-019-020-010000-
NORTHWEST INDIANA

CITY           SKY/WX    TMP DP  RH WIND       PRES   REMARKS
GARY*          LGT RAIN  39  32  75 N30G60    30.23R
MICHIGAN CITY* NOT AVBL
RENSSELAER*    NOT AVBL
VALPARAISO     MIX PCPN  37  33  85 N22G36    30.18R
$$

LMZ740>746-010000-
SOUTHERN LAKE MICHIGAN

STATION/POSITION TIME  SKY/WX   TEMP WIND        PRES    VSBY
                                AIR  DIR/SP/G
                 (UTC)          (F)  (DEG/KT/KT) (MB)    (MI)
HARRISON CRIB    2200            41  360/ 41/ 54   N/A
BURNHAM HARBOR   2300            38  330/ 24/ 35   N/A
CALUMET HARBOR   2300            40  350/ 25/ 38 1023.1R
BURNS HARBOR     NOT AVBL
MICHIGAN CITY    2300            41  360/ 42/ 51   N/A
$$

ABBREVIATIONS USED IN REMARKS
   TC - TEMPERATURE IN CELSIUS
  WCI - WIND CHILL INDEX
   HX - HEAT INDEX
  VSB - VISIBILITY
$$



USA.gov is the U.S. government's official web portal to all federal, state and local government web resources and services.